SKYSAT-C3

Last updated on Tue Jul 08 2025 00:02:29 GMT+0000 (Coordinated Universal Time)

1 41774U 16058E 25188.58690760 .00010718 00000+0 28550-3 0 9997 2 41774 96.9519 230.2046 0002608 92.9017 267.2528 15.38340998492901
UTC large
Height (km)
Speed (km/s)
/
Latitude / Longitude
Inclination (degrees)
Orbital Period (minutes)
Azimuth
Elevation
Range (km)
Doppler Factor

Next 0 passes for location: London (51.5072 / 0.1276)

Sorry there are no passes over London.